Location: Monrovia
(34.7865°N, 86.7139°W)
Time: 00:53:12
(UTC+00:00)

Cosmos 2322 Rocket - Pass Details

Date: 14 July 2020
Orbit: 832 x 851 km, 71.0° (Epoch: 12 August)

Event Time Altitude Azimuth Distance (km) Brightness Sun altitude
Rises 09:34:48 0° 344° (NNW) 3,404 5.7 -12.9°
Reaches altitude 10° 09:37:19 10° 349° (N) 2,469 5.0 -12.5°
Maximum altitude 09:42:50 52° 66° (ENE) 1,047 3.2 -11.6°
Drops below altitude 10° 09:48:21 10° 142° (SE) 2,466 4.7 -10.7°
Sets 09:50:52 0° 147° (SSE) 3,400 5.3 -10.2°
